User: anonymous   Login
Location: Unspecified
(0.0000°N, 0.0000°E)
Time: 01:17:19
(UTC+00:00)
Language:

PAYLOAD D - Orbit

View from above orbital plane
View from above orbital plane
View from above satellite
View from above satellite

Ground track
Ground track

The orbit data is extracted from the following two-line orbital elements,

1 27058U 01058D   17293.68766546  .00000012  00000-0  86615-5 0  9990
2 27058  82.5326  69.9862 0002743 336.5136  23.5827 12.62018859728492
Epoch (UTC): 20 October 2017 16:30:14
Eccentricity: 0.0002743
inclination: 82.5326°
perigee height: 1412 km
apogee height: 1417 km
right ascension of ascending node: 69.9862°
argument of perigee: 336.5136°
revolutions per day: 12.62018859
mean anomaly at epoch: 23.5827°
orbit number at epoch: 72849

The dashed part of the orbit path shows where the satellite is in the earth's shadow,  

DLR